CW1231 Lillian AL US current weather conditions

sailwx.info

Wind from 019

Air temperature 16.1° C
Dewpoint 10.4° C

Last reported at 2019-Oct-18 05:06 UTC.
Time now 2019-Oct-18 06:01 UTC

Location: N 30°23' W 087°29'.
View on Google Maps.

See reports from other nearby stations

  
Tides and Currents Weather Stations Pressure Air Temp Water Temp Dewpoint Dewpoint Depression Visibility Wind Speed Wind Dir Waves Ship Positions
date/time (UTC)wind fromknots sea level pressurealtimeterstation pressurevisibilityair tempwater tempwave heightnotes
2019-Oct-18 05:06 019 16.1
2019-Oct-18 05:01 019 16.1
2019-Oct-18 04:36 019 16.1
2019-Oct-18 04:31 019 16.1
2019-Oct-18 04:06 020 16.1
2019-Oct-18 04:01 020 0 gusting 5 16.1
2019-Oct-18 03:36 033 1 gusting 4 16.7
2019-Oct-18 03:31 015 16.7
2019-Oct-18 03:06 024 1 gusting 2 16.7
2019-Oct-18 03:01 026 0 gusting 4 16.7
2019-Oct-18 02:36 024 16.7
2019-Oct-18 02:31 024 0 gusting 4 16.7
2019-Oct-18 02:06 005 0 gusting 2 16.7
2019-Oct-18 02:01 331 1 gusting 2 16.7
2019-Oct-18 01:36 005 0 gusting 2 16.7
2019-Oct-18 01:31 358 0 gusting 2 16.7
2019-Oct-18 01:06 018 17.2
2019-Oct-18 01:01 018 17.2
2019-Oct-18 00:36 019 17.2
2019-Oct-18 00:31 324 17.2
2019-Oct-18 00:06 016 17.8
2019-Oct-18 00:01 016 17.8
2019-Oct-17 23:36 020 18.3
2019-Oct-17 23:31 020 18.9
2019-Oct-17 23:06 020 19.4
2019-Oct-17 23:01 020 19.4
2019-Oct-17 22:36 020 20.0
2019-Oct-17 22:31 313 20.0
2019-Oct-17 22:06 327 20.6
2019-Oct-17 22:01 004 20.6
2019-Oct-17 21:36 014 20.6
2019-Oct-17 21:31 014 20.6
2019-Oct-17 21:06 017 0 gusting 1 21.1
2019-Oct-17 21:01 017 21.1
2019-Oct-17 20:36 008 0 gusting 2 21.1
2019-Oct-17 20:31 272 21.1
2019-Oct-17 20:06 024 0 gusting 2 21.1
2019-Oct-17 20:01 029 0 gusting 6 21.1
2019-Oct-17 19:36 281 0 gusting 2 21.1
2019-Oct-17 19:31 312 21.1
2019-Oct-17 19:06 176 0 gusting 2 21.1
2019-Oct-17 19:01 026 21.1
2019-Oct-17 18:36 355 1 gusting 5 21.1
2019-Oct-17 18:31 014 0 gusting 4 21.7
2019-Oct-17 18:06 247 1 gusting 2 21.1
2019-Oct-17 18:01 255 2 gusting 5 21.1
2019-Oct-17 17:36 031 0 gusting 2 20.6
2019-Oct-17 17:31 067 1 gusting 4 21.1
2019-Oct-17 17:06 337 19.4
2019-Oct-17 17:01 314 19.4
2019-Oct-17 16:36 317 18.9
2019-Oct-17 16:31 041 0 gusting 1 18.9
2019-Oct-17 16:06 026 18.3
2019-Oct-17 16:01 026 17.8
2019-Oct-17 15:36 012 17.2
2019-Oct-17 15:31 012 17.2
2019-Oct-17 15:06 061 16.7
2019-Oct-17 15:01 355 16.7
2019-Oct-17 14:36 355 15.6
2019-Oct-17 14:31 355 15.6
2019-Oct-17 14:06 355 13.9
2019-Oct-17 14:01 355 13.9
2019-Oct-17 13:36 355 12.8
2019-Oct-17 13:31 350 12.8
2019-Oct-17 13:06 344 12.2
2019-Oct-17 13:01 344 12.2
2019-Oct-17 12:36 011 11.7
2019-Oct-17 12:31 011 11.7
2019-Oct-17 12:06 011 11.7
2019-Oct-17 12:01 011 12.2
2019-Oct-17 11:36 011 12.2
2019-Oct-17 11:31 011 12.2
2019-Oct-17 11:06 011 12.2
2019-Oct-17 11:01 011 12.2
2019-Oct-17 10:36 012 12.2
2019-Oct-17 10:31 013 12.2
2019-Oct-17 10:06 355 12.8
2019-Oct-17 10:01 355 12.8
2019-Oct-17 09:36 351 12.8
2019-Oct-17 09:31 009 12.8
2019-Oct-17 09:06 12.8
2019-Oct-17 09:01 12.8
2019-Oct-17 08:36 355 13.3
2019-Oct-17 08:31 350 13.3
2019-Oct-17 08:06 355 13.3
2019-Oct-17 08:01 355 13.3
2019-Oct-17 07:36 350 13.9
2019-Oct-17 07:31 350 13.9
2019-Oct-17 07:06 350 14.4
2019-Oct-17 07:01 350 14.4
2019-Oct-17 06:36 350 15.0
2019-Oct-17 06:31 350 15.0
2019-Oct-17 06:06 350 15.0
2019-Oct-17 06:01 348 15.0
2019-Oct-17 05:36 348 15.6
2019-Oct-17 05:31 348 15.6
2019-Oct-17 05:06 348 16.1
2019-Oct-17 05:01 348 16.1
2019-Oct-17 04:36 348 16.7
2019-Oct-17 04:31 348 16.7
2019-Oct-17 04:06 348 17.2
2019-Oct-17 04:01 348 17.8
2019-Oct-17 03:36 009 0 gusting 2 18.3
2019-Oct-17 03:31 005 18.3
2019-Oct-17 03:06 18.9
2019-Oct-17 03:01 021 18.9
2019-Oct-17 02:36 347 20.0
2019-Oct-17 02:31 345 20.0
2019-Oct-17 02:06 20.6
2019-Oct-17 02:01 307 20.6
2019-Oct-17 01:36 21.1
2019-Oct-17 01:31 017 21.7
2019-Oct-17 01:06 300 21.7
2019-Oct-17 01:01 287 21.7
2019-Oct-17 00:36 324 22.2
2019-Oct-17 00:31 325 22.2
2019-Oct-17 00:06 325 22.8
2019-Oct-17 00:01 325 22.8
2019-Oct-16 23:36 005 23.3
2019-Oct-16 23:31 005 23.3
2019-Oct-16 23:06 022 23.9
2019-Oct-16 23:01 022 23.9
2019-Oct-16 22:36 071 24.4
2019-Oct-16 22:31 065 24.4
2019-Oct-16 22:06 344 24.4
2019-Oct-16 22:01 343 24.4
2019-Oct-16 21:36 342 24.4
2019-Oct-16 21:31 335 25.0
2019-Oct-16 21:06 003 25.0
2019-Oct-16 21:01 010 0 gusting 2 25.0
2019-Oct-16 20:36 309 0 gusting 2 25.0
2019-Oct-16 20:31 336 0 gusting 2 25.6
2019-Oct-16 20:06 029 25.0
2019-Oct-16 20:01 300 25.0
2019-Oct-16 19:36 280 25.0
2019-Oct-16 19:31 268 25.0
2019-Oct-16 19:06 355 24.4
2019-Oct-16 19:01 281 24.4
2019-Oct-16 18:36 291 23.3
2019-Oct-16 18:31 010 23.3
2019-Oct-16 18:06 321 23.3
2019-Oct-16 18:01 309 23.3
2019-Oct-16 17:36 293 23.3
2019-Oct-16 17:31 277 22.8
2019-Oct-16 17:06 277 22.8
2019-Oct-16 17:01 277 22.8
2019-Oct-16 16:36 279 22.8
2019-Oct-16 16:31 279 22.8
2019-Oct-16 16:06 277 22.8
2019-Oct-16 16:01 277 22.8
2019-Oct-16 15:36 279 22.2
2019-Oct-16 15:31 279 22.2
2019-Oct-16 15:06 279 22.8
2019-Oct-16 15:01 279 22.8
2019-Oct-16 14:36 280 22.8
2019-Oct-16 14:31 282 22.8
2019-Oct-16 14:06 281 22.8
2019-Oct-16 14:01 281 22.8
2019-Oct-16 13:36 275 22.8
2019-Oct-16 13:31 275 22.8
2019-Oct-16 13:06 267 22.8
2019-Oct-16 13:01 265 22.8
2019-Oct-16 12:36 267 22.8
2019-Oct-16 12:31 267 22.2
2019-Oct-16 12:06 275 22.2
2019-Oct-16 12:01 275 22.2
2019-Oct-16 11:36 275 22.2
2019-Oct-16 11:31 275 22.2
2019-Oct-16 11:06 275 22.2
2019-Oct-16 11:01 275 22.2
2019-Oct-16 10:36 275 22.2
2019-Oct-16 10:31 275 22.2
2019-Oct-16 10:06 275 22.2
2019-Oct-16 10:01 275 21.7
2019-Oct-16 09:36 275 21.7
2019-Oct-16 09:31 275 21.7
2019-Oct-16 09:06 275 21.7
2019-Oct-16 09:01 275 21.7
2019-Oct-16 08:36 275 21.7
2019-Oct-16 08:31 275 21.7
2019-Oct-16 08:06 275 21.7
2019-Oct-16 08:01 275 21.7
2019-Oct-16 07:36 275 21.7
2019-Oct-16 07:31 275 21.7
2019-Oct-16 07:06 275 21.7
2019-Oct-16 07:01 275 21.7
2019-Oct-16 06:36 275 22.2
2019-Oct-16 06:31 275 22.2
2019-Oct-16 06:06 275 22.2
2019-Oct-16 06:01 275 22.2